Location: *
(44.3526°S, 44.9014°W)
Time: 00:07:45
(UTC+00:00)

PSLV R/B - Pass Details

Date: 13 May 2025
Orbit: 566 x 592 km, 98.0° (Epoch: 14 June)

Event Time Altitude Azimuth Distance (km) Brightness Sun altitude
Exits shadow 21:26:18 28° 51° (NE) 1,093 4.4 -18.2°
Drops below altitude 10° 21:28:53 10° 18° (NNE) 1,876 5.9 -18.7°
Sets 21:31:10 0° 8° (N) 2,763 6.9 -19.1°
